Total_Precipitation_Accumulation
1.86 2.24 2.60 3.04 3.48 3.99 4.73 5.34 5.75 5.72 5.51 5.12 4.73 4.42 3.95 3.65 3.38 3.09 2.88 2.65 2.37 2.26 2.54 2.34 2.60 2.51 2.36 2.19 2.19 2.30 2.33 2.07 2.30 2.51 2.03 1.54 1.29 1.20 1.07 1.07 1.16 1.09 1.18
1.81 2.16 2.66 2.95 3.29 3.81 4.36 4.78 4.76 4.42 4.29 4.26 4.15 3.87 3.88 3.74 3.60 3.34 3.10 2.69 2.50 2.35 2.19 2.32 2.19 2.15 2.22 2.03 1.93 2.12 2.12 1.89 2.21 2.31 2.26 1.72 1.49 1.24 0.86 0.98 1.09 1.16 1.37
1.46 1.79 2.34 2.64 2.82 3.25 3.59 3.64 3.51 3.34 3.38 3.43 3.39 3.47 3.68 3.69 3.62 3.46 3.16 2.85 2.69 2.58 2.43 2.31 2.12 2.05 1.91 1.93 1.95 2.02 2.04 1.95 1.95 2.02 2.18 1.79 1.45 1.25 0.92 0.91 1.08 1.34 1.54
1.22 1.50 1.84 2.05 2.30 2.49 2.64 2.64 2.71 2.74 2.75 2.77 2.76 2.68 2.71 2.89 3.10 3.32 3.34 3.27 3.04 2.79 2.52 2.32 2.13 1.94 1.79 1.93 1.66 1.75 2.01 2.07 1.81 1.83 1.80 1.69 1.77 1.72 1.37 1.02 0.94 1.20 1.38
1.25 1.44 1.53 1.67 1.76 1.78 1.90 1.96 2.25 2.57 2.66 2.69 2.78 2.69 2.43 2.41 2.47 2.61 2.75 2.74 2.72 2.56 2.26 2.16 2.11 1.94 1.77 1.75 1.71 1.94 1.94 1.90 1.81 1.86 1.84 1.92 2.02 1.87 1.74 1.44 1.32 1.37 1.30
0.96 1.17 1.41 1.47 1.41 1.39 1.56 1.76 2.06 2.45 2.66 2.69 2.66 2.63 2.54 2.50 2.41 2.39 2.42 2.30 2.29 2.23 2.09 2.01 2.04 1.89 1.76 1.73 1.71 1.83 1.89 1.96 2.01 2.00 1.94 1.98 1.95 1.95 2.12 1.87 1.70 1.65 1.42
0.72 0.73 0.91 1.14 1.10 1.06 1.21 1.48 1.68 1.97 2.18 2.27 2.27 2.21 2.32 2.42 2.30 2.15 2.07 1.99 1.86 1.78 1.80 1.88 1.95 1.80 1.73 1.79 1.91 1.87 1.82 1.91 2.01 1.94 1.97 2.02 1.95 2.06 2.22 2.18 1.93 1.78 1.60
0.52 0.50 0.57 0.71 0.92 0.92 0.96 1.09 1.33 1.51 1.70 1.80 1.92 2.03 2.20 2.29 2.24 2.38 2.19 2.03 1.74 1.62 1.67 1.85 1.91 1.81 1.73 1.70 1.97 1.97 1.96 2.03 2.01 1.88 2.10 2.13 1.96 2.15 2.38 2.47 2.47 2.22 2.07
0.40 0.41 0.49 0.67 0.68 0.67 0.72 0.84 1.05 1.20 1.37 1.54 1.72 1.79 1.76 1.78 1.91 2.10 2.12 1.97 1.87 1.69 1.76 1.82 1.97 2.02 2.05 2.06 2.18 2.10 2.10 2.25 2.23 2.17 2.29 2.30 2.18 2.20 2.33 2.54 2.71 2.74 2.57
0.38 0.39 0.43 0.50 0.50 0.49 0.63 0.85 1.00 1.01 1.25 1.56 1.74 1.65 1.62 1.53 1.67 1.76 1.81 1.86 1.81 1.80 1.83 1.83 1.89 1.98 2.06 2.10 2.23 2.21 2.28 2.45 2.47 2.52 2.61 2.50 2.27 2.32 2.39 2.52 2.75 2.97 3.00
0.44 0.44 0.43 0.43 0.54 0.49 0.58 0.73 0.84 0.97 1.24 1.56 1.76 1.75 1.60 1.59 1.71 1.64 1.62 1.75 1.79 1.78 1.82 1.82 1.78 1.75 1.87 2.07 2.25 2.25 2.39 2.51 2.56 2.55 2.47 2.37 2.41 2.52 2.45 2.55 2.68 2.87 3.07
0.37 0.35 0.32 0.37 0.37 0.37 0.50 0.79 1.10 1.44 1.59 1.84 2.07 2.06 1.78 1.61 1.54 1.42 1.44 1.64 1.83 1.85 1.82 1.79 1.76 1.71 1.79 2.05 2.23 2.34 2.60 2.73 2.63 2.53 2.49 2.38 2.47 2.57 2.51 2.55 2.53 2.59 2.85
0.39 0.38 0.34 0.41 0.38 0.37 0.41 0.55 0.70 1.03 1.34 1.65 1.90 1.84 1.61 1.45 1.41 1.41 1.47 1.63 1.77 1.78 1.74 1.75 1.79 1.90 2.00 2.20 2.35 2.46 2.66 2.63 2.52 2.52 2.42 2.30 2.34 2.32 2.37 2.41 2.37 2.32 2.40
0.49 0.44 0.41 0.38 0.38 0.40 0.37 0.45 0.52 0.61 0.81 1.20 1.47 1.49 1.36 1.31 1.34 1.40 1.42 1.42 1.46 1.52 1.58 1.77 2.00 2.17 2.30 2.39 2.44 2.45 2.43 2.43 2.34 2.23 2.12 2.10 2.17 2.24 2.25 2.18 2.16 2.20 2.29
0.49 0.46 0.45 0.47 0.49 0.52 0.47 0.45 0.50 0.54 0.70 1.09 1.31 1.29 1.26 1.27 1.24 1.24 1.32 1.38 1.44 1.49 1.71 1.89 2.00 2.05 2.11 2.18 2.30 2.30 2.24 2.19 2.10 1.98 1.79 1.79 2.05 2.17 2.14 1.98 2.05 2.15 2.24
0.47 0.44 0.38 0.47 0.53 0.55 0.54 0.51 0.52 0.57 0.71 0.98 1.21 1.21 1.20 1.18 1.12 1.15 1.25 1.42 1.51 1.66 1.84 1.89 1.87 1.84 1.61 1.71 1.82 1.86 1.87 1.87 1.82 1.71 1.63 1.64 1.73 1.74 1.76 1.74 1.74 1.80 1.90
0.45 0.40 0.43 0.54 0.72 0.65 0.62 0.66 0.61 0.62 0.75 0.97 1.15 1.24 1.22 1.23 1.21 1.19 1.35 1.55 1.70 1.84 1.95 1.94 1.89 1.79 1.72 1.62 1.50 1.49 1.53 1.64 1.65 1.66 1.68 1.46 1.35 1.48 1.51 1.60 1.56 1.51 1.59
0.55 0.55 0.52 0.57 0.64 0.62 0.64 0.69 0.69 0.70 0.81 1.02 1.24 1.33 1.27 1.32 1.40 1.41 1.50 1.72 1.93 2.07 2.08 2.03 1.95 1.91 1.85 1.75 1.53 1.48 1.43 1.55 1.58 1.56 1.57 1.56 1.48 1.47 1.56 1.62 1.56 1.43 1.38
0.65 0.65 0.69 0.67 0.74 0.78 0.77 0.76 0.83 0.88 0.97 1.07 1.24 1.36 1.41 1.50 1.53 1.57 1.75 1.96 2.14 2.18 2.14 2.17 2.10 2.04 2.07 1.91 1.56 1.40 1.38 1.55 1.58 1.57 1.54 1.52 1.47 1.51 1.39 1.36 1.38 1.36 1.32
0.78 0.73 0.77 0.82 0.85 0.90 0.95 0.95 1.02 1.15 1.30 1.39 1.47 1.64 1.82 1.98 2.06 2.11 2.19 2.24 2.31 2.22 2.19 2.18 2.18 2.12 2.12 2.02 1.53 1.30 1.30 1.50 1.54 1.61 1.58 1.49 1.36 1.33 1.20 1.19 1.32 1.30 1.28
0.71 0.75 0.76 0.85 0.93 0.94 1.05 1.20 1.29 1.40 1.53 1.68 1.76 1.95 2.25 2.42 2.42 2.43 2.38 2.30 2.30 2.32 2.30 2.21 2.19 2.15 2.08 1.99 1.58 1.39 1.41 1.55 1.64 1.64 1.60 1.54 1.40 1.20 1.14 1.09 1.13 1.18 1.16
0.65 0.71 0.75 0.81 0.96 1.15 1.31 1.56 1.67 1.62 1.72 1.91 2.06 2.25 2.48 2.43 2.36 2.54 2.48 2.44 2.51 2.50 2.37 2.27 2.18 2.20 2.16 1.98 1.67 1.42 1.47 1.61 1.73 1.80 1.75 1.65 1.44 1.19 1.09 1.01 0.99 0.96 0.89
0.65 0.69 0.75 0.87 0.99 1.21 1.57 1.83 1.88 1.93 1.98 2.09 2.19 2.25 2.35 2.53 2.70 2.77 2.67 2.59 2.59 2.52 2.33 2.22 2.08 2.01 2.07 2.10 1.68 1.40 1.45 1.54 1.58 1.75 1.78 1.53 1.30 1.14 0.98 0.94 0.93 0.82 0.76
0.70 0.73 0.80 0.96 1.15 1.33 1.65 1.81 1.84 1.89 1.95 1.98 1.96 2.04 2.19 2.34 2.44 2.67 2.73 2.65 2.53 2.46 2.39 2.29 2.13 2.03 2.04 2.04 1.71 1.39 1.37 1.43 1.43 1.51 1.58 1.44 1.27 1.13 1.00 0.94 0.89 0.83 0.84
0.73 0.80 0.87 0.97 1.10 1.27 1.47 1.57 1.73 1.81 1.91 1.93 1.88 1.88 1.90 2.01 2.10 2.20 2.31 2.29 2.28 2.10 2.00 1.92 1.85 1.83 1.86 1.82 1.56 1.37 1.36 1.47 1.52 1.47 1.49 1.50 1.37 1.24 1.13 1.10 1.12 1.12 1.07
0.69 0.80 0.90 1.00 1.09 1.25 1.45 1.54 1.67 1.76 1.81 1.79 1.73 1.75 1.76 1.83 1.87 1.88 1.81 1.65 1.58 1.43 1.29 1.25 1.20 1.22 1.27 1.37 1.22 1.09 1.17 1.32 1.37 1.30 1.33 1.44 1.43 1.34 1.26 1.19 1.19 1.18 1.12